Temp
45 42 42 41 40 41 43 45 47 47 49 50 51 53 54 55 56 56 55 55 54 54
42 42 41 43 43 41 42 46 46 47 47 48 51 52 54 55 56 56 56 55 55 54
41 41 43 44 42 44 45 46 45 46 47 49 51 52 54 55 56 56 56 55 55 54
41 41 42 44 44 45 45 45 45 46 47 49 51 53 54 55 56 56 55 55 55 54
41 44 44 43 44 44 44 45 45 46 47 50 53 54 55 56 56 55 55 55 55 54
40 41 43 43 43 43 43 44 46 47 49 52 54 54 55 55 55 54 54 54 54 54
40 41 42 42 42 43 43 44 46 47 49 51 52 52 52 52 51 51 51 52 53 53
41 42 42 42 42 42 43 43 44 45 45 45 46 48 49 48 47 47 45 45 45 46
41 41 40 41 41 42 42 42 42 42 42 42 42 42 43 45 45 44 44 42 42 43
38 38 39 40 41 40 41 42 41 41 41 40 40 41 41 40 43 42 42 41 41 40
38 37 37 37 40 40 40 41 41 41 41 40 40 40 40 39 41 40 39 39 40 40
37 36 37 37 37 37 39 39 38 38 40 40 39 39 40 42 40 37 35 36 36 37
36 36 36 36 35 35 36 35 36 35 35 34 36 40 39 39 38 35 34 35 35 36
36 36 36 35 35 35 35 35 34 34 32 33 33 38 40 40 36 35 34 33 33 34
MSLP
1016.37 1016.30 1016.28 1016.23 1016.23 1016.21 1016.10 1015.95 1015.85 1015.31 1015.28 1015.18 1014.78 1014.56 1014.53 1014.33 1014.60 1015.10 1015.76 1016.39 1016.89 1017.46
1016.38 1016.36 1016.44 1016.30 1016.20 1016.24 1016.07 1015.72 1015.81 1015.36 1015.36 1015.23 1014.88 1014.71 1014.66 1014.22 1014.66 1015.18 1015.86 1016.58 1017.03 1017.49
1016.20 1016.55 1016.39 1016.18 1016.09 1016.05 1015.83 1015.52 1015.23 1015.09 1015.06 1015.02 1014.68 1014.60 1014.60 1014.41 1014.65 1015.26 1015.90 1016.59 1017.16 1017.62
1016.39 1016.52 1016.37 1016.12 1015.96 1015.79 1015.47 1015.18 1015.16 1014.70 1014.57 1014.55 1014.58 1014.64 1014.79 1014.78 1015.00 1015.45 1016.00 1016.71 1017.22 1017.65
1016.42 1016.53 1016.21 1016.12 1015.84 1015.71 1015.21 1014.68 1014.61 1014.81 1014.54 1014.52 1014.33 1014.27 1014.33 1014.58 1015.08 1015.53 1016.01 1016.55 1017.17 1017.61
1016.41 1016.25 1016.04 1016.10 1015.85 1015.53 1014.74 1014.91 1014.07 1014.09 1014.27 1014.06 1014.05 1014.17 1014.48 1014.79 1015.20 1015.62 1016.07 1016.51 1017.00 1017.53
1016.49 1016.21 1016.14 1015.93 1015.87 1015.53 1015.27 1014.63 1014.36 1014.08 1014.06 1014.20 1014.42 1014.77 1015.10 1015.32 1015.66 1015.89 1016.40 1016.58 1017.04 1017.64
1016.52 1016.35 1016.22 1016.05 1016.01 1015.87 1015.63 1015.32 1015.08 1014.81 1015.01 1015.14 1015.30 1015.45 1015.59 1015.88 1016.29 1016.69 1017.19 1017.42 1017.64 1017.96
1016.54 1016.65 1016.45 1016.35 1016.20 1016.05 1016.19 1016.12 1016.01 1016.13 1016.23 1016.25 1016.50 1016.32 1016.24 1016.55 1017.03 1017.48 1017.78 1018.31 1018.75 1019.03
1016.80 1016.87 1016.94 1016.88 1016.64 1016.71 1016.65 1016.67 1016.77 1016.87 1016.90 1017.15 1017.39 1017.14 1017.15 1017.40 1017.93 1018.37 1018.84 1019.23 1019.57 1020.05
1017.10 1017.07 1017.20 1017.28 1017.26 1017.28 1017.31 1017.40 1017.53 1017.79 1017.89 1018.00 1018.52 1018.36 1018.32 1018.47 1018.97 1019.43 1019.98 1020.21 1020.42 1020.57
1017.40 1017.36 1017.37 1017.70 1017.92 1018.09 1018.11 1018.37 1018.56 1018.84 1018.88 1018.94 1019.40 1019.49 1019.32 1019.36 1019.82 1020.33 1020.97 1021.32 1021.56 1021.75
1017.47 1017.60 1017.72 1018.07 1018.48 1018.74 1018.90 1019.17 1019.48 1019.77 1019.97 1020.19 1020.35 1020.35 1020.23 1020.34 1020.61 1021.40 1022.10 1022.69 1022.80 1022.88
1017.73 1017.90 1018.07 1018.30 1018.77 1019.14 1019.32 1019.68 1020.16 1020.43 1020.95 1021.00 1020.95 1021.03 1021.06 1021.22 1021.59 1022.19 1022.90 1023.37 1023.78 1023.86
Wind_Speed
3 1 2 1 1 3 2 3 3 4 4 3 5 4 4 2 6 10 8 8 6 6
2 3 3 3 2 2 3 3 3 5 4 4 4 4 3 1 8 8 10 6 6 5
2 4 2 2 3 3 4 4 4 5 3 4 4 3 3 1 7 9 7 6 7 4
3 4 3 2 3 4 5 5 4 5 3 4 5 5 5 4 8 9 8 7 7 6
3 3 3 3 4 4 5 6 4 4 5 5 6 5 4 6 6 8 8 8 8 7
3 4 3 4 5 5 7 2 4 2 4 5 5 5 5 6 6 6 6 7 8 8
3 4 4 4 5 5 4 5 5 6 7 6 6 6 5 5 6 5 4 5 6 7
2 2 3 4 5 5 7 7 8 8 9 8 7 3 6 6 6 7 8 8 7 6
4 3 4 5 6 7 8 9 9 9 8 9 6 9 13 10 9 8 9 10 8 9
3 5 5 4 7 8 9 8 10 10 9 10 10 16 17 15 9 9 9 9 9 9
3 5 5 6 8 8 7 8 8 8 9 11 9 15 17 15 11 11 10 9 8 10
5 6 6 8 6 5 8 8 8 7 9 10 9 11 12 11 10 11 11 9 9 7
5 6 7 7 6 4 7 8 7 10 9 9 8 12 13 10 7 11 8 8 9 15
5 6 6 6 4 5 8 9 9 10 8 8 7 10 13 12 7 6 7 7 7 7
Wind_Direction
23 0 70 77 5 307 334 322 320 307 319 317 299 298 299 328 143 147 148 131 126 133
58 355 12 30 356 311 291 280 300 284 283 286 272 252 273 250 142 143 162 149 130 124
26 27 355 4 332 309 286 277 281 258 247 251 247 226 223 250 141 144 143 143 134 129
10 340 334 358 315 305 285 277 262 265 267 234 217 210 183 164 137 141 141 146 149 148
9 341 354 7 335 319 288 302 262 229 232 210 208 177 174 166 146 144 150 161 161 158
36 340 2 20 344 333 318 280 291 211 192 204 171 133 117 125 137 145 145 151 158 155
37 348 9 17 12 356 344 352 30 42 58 62 87 99 105 106 107 102 109 134 142 146
80 20 19 39 44 29 39 39 37 51 55 50 51 53 100 87 80 93 82 60 57 60
96 54 45 48 54 55 60 57 62 62 67 59 48 72 80 91 87 78 85 86 76 72
100 100 70 65 73 64 62 69 69 65 69 69 61 67 74 77 78 80 77 81 84 81
110 102 97 73 71 66 61 65 70 64 69 77 64 73 83 82 85 82 70 71 80 94
132 113 98 92 80 59 78 69 63 53 67 73 63 56 66 88 90 79 65 55 50 60
133 117 110 104 101 84 90 86 80 71 57 54 59 56 60 62 83 87 81 62 56 56
125 112 108 103 93 99 96 90 79 78 53 56 48 61 67 68 73 92 89 73 63 55